Total_Precipitation_Accumulation
0.41 0.41 0.41 0.39 0.36 0.29 0.23 0.20 0.19 0.22 0.25 0.28 0.34 0.38 0.40 0.42 0.43 0.48 0.59 0.74 0.81 0.80 0.78 0.80 0.76 0.66 0.58 0.52 0.49 0.52 0.54 0.47 0.34 0.26 0.27 0.24 0.21 0.24 0.25 0.19 0.16 0.13 0.12
0.60 0.68 0.69 0.61 0.51 0.41 0.31 0.24 0.22 0.23 0.25 0.26 0.26 0.29 0.32 0.36 0.40 0.48 0.58 0.64 0.67 0.64 0.58 0.53 0.48 0.39 0.33 0.29 0.28 0.29 0.30 0.32 0.33 0.30 0.35 0.32 0.26 0.28 0.34 0.32 0.23 0.17 0.17
0.66 0.90 1.01 0.93 0.78 0.59 0.40 0.25 0.19 0.18 0.19 0.19 0.19 0.24 0.31 0.43 0.51 0.56 0.58 0.58 0.56 0.55 0.55 0.52 0.41 0.29 0.22 0.18 0.15 0.13 0.11 0.13 0.20 0.24 0.31 0.33 0.29 0.26 0.30 0.36 0.37 0.31 0.24
0.61 0.77 0.83 0.76 0.66 0.53 0.34 0.21 0.14 0.12 0.13 0.15 0.19 0.25 0.34 0.43 0.51 0.55 0.54 0.52 0.46 0.41 0.40 0.38 0.33 0.25 0.17 0.12 0.10 0.07 0.05 0.10 0.18 0.23 0.27 0.30 0.31 0.26 0.27 0.34 0.46 0.45 0.38
0.39 0.45 0.49 0.43 0.32 0.27 0.21 0.16 0.13 0.13 0.14 0.16 0.19 0.24 0.27 0.30 0.35 0.31 0.27 0.27 0.24 0.20 0.18 0.16 0.16 0.15 0.13 0.09 0.06 0.04 0.03 0.07 0.12 0.14 0.17 0.22 0.28 0.31 0.30 0.35 0.50 0.56 0.53
0.22 0.26 0.31 0.32 0.25 0.18 0.14 0.09 0.07 0.08 0.10 0.12 0.16 0.19 0.19 0.18 0.25 0.18 0.10 0.08 0.09 0.09 0.11 0.11 0.09 0.08 0.08 0.07 0.05 0.04 0.03 0.03 0.04 0.06 0.08 0.14 0.22 0.31 0.40 0.44 0.50 0.53 0.55
0.18 0.23 0.31 0.32 0.27 0.21 0.14 0.10 0.07 0.06 0.06 0.06 0.07 0.05 0.06 0.07 0.12 0.10 0.04 0.04 0.04 0.04 0.04 0.06 0.05 0.04 0.03 0.03 0.03 0.03 0.02 0.02 0.02 0.04 0.04 0.05 0.07 0.11 0.20 0.31 0.48 0.66 0.77
0.18 0.22 0.26 0.29 0.26 0.22 0.19 0.18 0.15 0.09 0.05 0.03 0.02 0.01 0.01 0.02 0.04 0.05 0.04 0.03 0.03 0.03 0.03 0.02 0.02 0.01 0.01 0.01 0.02 0.02 0.01 0.00 0.00 0.01 0.01 0.01 0.01 0.03 0.07 0.12 0.22 0.44 0.69
0.16 0.22 0.25 0.28 0.26 0.24 0.23 0.22 0.17 0.11 0.06 0.04 0.02 0.00 0.00 0.00 0.01 0.01 0.01 0.02 0.02 0.01 0.01 0.01 0.01 0.01 0.01 0.00 0.01 0.02 0.02 0.01 0.00 0.00 0.00 0.00 0.00 0.00 0.01 0.03 0.04 0.10 0.24
0.16 0.23 0.28 0.29 0.30 0.29 0.29 0.26 0.20 0.14 0.09 0.05 0.02 0.01 0.00 0.00 0.00 0.00 0.00 0.01 0.01 0.01 0.00 0.01 0.01 0.00 0.00 0.00 0.01 0.01 0.01 0.01 0.01 0.00 0.00 0.00 0.01 0.00 0.00 0.01 0.01 0.02 0.06
0.14 0.19 0.27 0.29 0.31 0.34 0.36 0.33 0.26 0.19 0.13 0.08 0.05 0.02 0.01 0.00 0.00 0.00 0.00 0.01 0.01 0.01 0.00 0.00 0.00 0.00 0.00 0.00 0.00 0.00 0.00 0.00 0.00 0.00 0.00 0.01 0.01 0.02 0.01 0.01 0.01 0.03 0.04
0.16 0.22 0.27 0.28 0.25 0.28 0.35 0.36 0.33 0.27 0.15 0.09 0.06 0.03 0.01 0.00 0.00 0.00 0.00 0.00 0.00 0.00 0.00 0.00 0.00 0.00 0.00 0.00 0.00 0.00 0.00 0.00 0.00 0.00 0.00 0.00 0.00 0.00 0.01 0.01 0.02 0.03 0.03
0.20 0.24 0.28 0.27 0.27 0.32 0.37 0.41 0.40 0.34 0.21 0.11 0.05 0.03 0.01 0.00 0.00 0.00 0.00 0.00 0.00 0.00 0.00 0.00 0.00 0.00 0.00 0.00 0.00 0.00 0.00 0.00 0.00 0.00 0.00 0.01 0.00 0.00 0.00 0.01 0.01 0.02 0.03
0.24 0.24 0.26 0.28 0.29 0.31 0.38 0.42 0.43 0.40 0.27 0.13 0.05 0.03 0.02 0.01 0.01 0.01 0.01 0.01 0.00 0.00 0.00 0.00 0.00 0.00 0.00 0.00 0.00 0.00 0.00 0.00 0.00 0.00 0.00 0.00 0.00 0.00 0.01 0.02 0.02 0.03 0.03
0.30 0.28 0.27 0.28 0.31 0.36 0.38 0.42 0.43 0.43 0.30 0.17 0.08 0.04 0.04 0.04 0.03 0.04 0.04 0.02 0.01 0.01 0.00 0.00 0.00 0.00 0.00 0.00 0.00 0.00 0.00 0.00 0.00 0.00 0.00 0.00 0.00 0.00 0.02 0.06 0.07 0.05 0.02
0.36 0.37 0.34 0.30 0.31 0.34 0.37 0.36 0.37 0.38 0.30 0.18 0.10 0.05 0.02 0.01 0.00 0.00 0.00 0.00 0.00 0.00 0.00 0.00 0.00 0.00 0.00 0.00 0.00 0.00 0.00 0.00 0.00 0.00 0.00 0.00 0.00 0.00 0.00 0.01 0.02 0.03 0.03
0.39 0.39 0.37 0.33 0.33 0.35 0.36 0.35 0.35 0.34 0.32 0.22 0.13 0.08 0.03 0.01 0.00 0.00 0.00 0.00 0.00 0.00 0.00 0.00 0.00 0.00 0.00 0.00 0.00 0.00 0.00 0.00 0.00 0.00 0.00 0.00 0.00 0.00 0.00 0.00 0.00 0.01 0.02
0.38 0.38 0.37 0.34 0.32 0.33 0.35 0.35 0.37 0.37 0.31 0.20 0.13 0.08 0.04 0.01 0.01 0.00 0.00 0.00 0.00 0.00 0.00 0.00 0.00 0.00 0.00 0.00 0.00 0.00 0.00 0.00 0.00 0.00 0.00 0.00 0.00 0.00 0.00 0.00 0.01 0.01 0.01
0.36 0.36 0.35 0.33 0.32 0.32 0.32 0.34 0.36 0.36 0.30 0.21 0.13 0.07 0.03 0.02 0.02 0.01 0.00 0.00 0.00 0.00 0.00 0.00 0.00 0.00 0.00 0.00 0.00 0.00 0.00 0.00 0.00 0.00 0.00 0.00 0.00 0.00 0.00 0.00 0.00 0.00 0.00
0.36 0.33 0.33 0.33 0.32 0.32 0.32 0.32 0.32 0.32 0.27 0.18 0.12 0.07 0.03 0.02 0.01 0.01 0.00 0.00 0.00 0.00 0.00 0.00 0.00 0.00 0.00 0.00 0.00 0.00 0.00 0.00 0.00 0.00 0.00 0.00 0.00 0.00 0.00 0.00 0.00 0.00 0.00
0.36 0.32 0.30 0.30 0.29 0.29 0.31 0.31 0.29 0.25 0.21 0.15 0.09 0.05 0.03 0.01 0.01 0.00 0.00 0.00 0.00 0.00 0.00 0.00 0.00 0.00 0.00 0.00 0.00 0.00 0.00 0.00 0.00 0.00 0.00 0.00 0.00 0.00 0.00 0.00 0.00 0.00 0.00
0.37 0.31 0.27 0.25 0.25 0.26 0.26 0.28 0.28 0.21 0.15 0.11 0.08 0.05 0.04 0.02 0.01 0.00 0.00 0.00 0.00 0.00 0.00 0.00 0.00 0.00 0.00 0.00 0.00 0.00 0.00 0.00 0.00 0.00 0.00 0.00 0.00 0.00 0.00 0.00 0.00 0.00 0.00
0.41 0.33 0.25 0.20 0.20 0.22 0.22 0.24 0.25 0.19 0.13 0.09 0.06 0.03 0.02 0.02 0.01 0.00 0.00 0.00 0.00 0.00 0.00 0.00 0.00 0.00 0.00 0.00 0.00 0.00 0.00 0.00 0.00 0.00 0.00 0.00 0.00 0.00 0.00 0.00 0.00 0.00 0.00
0.44 0.35 0.26 0.18 0.17 0.18 0.18 0.19 0.20 0.17 0.12 0.07 0.04 0.02 0.02 0.01 0.01 0.00 0.00 0.00 0.00 0.00 0.00 0.00 0.00 0.00 0.00 0.00 0.00 0.00 0.00 0.00 0.00 0.00 0.00 0.00 0.00 0.00 0.00 0.00 0.00 0.00 0.00
0.45 0.36 0.27 0.17 0.12 0.13 0.15 0.15 0.15 0.14 0.09 0.06 0.03 0.01 0.01 0.01 0.01 0.00 0.00 0.00 0.00 0.00 0.00 0.00 0.00 0.00 0.00 0.00 0.00 0.00 0.00 0.00 0.00 0.00 0.00 0.00 0.00 0.00 0.00 0.00 0.00 0.00 0.00
0.46 0.37 0.29 0.18 0.10 0.09 0.11 0.12 0.11 0.10 0.06 0.04 0.02 0.01 0.01 0.01 0.00 0.00 0.00 0.00 0.00 0.00 0.00 0.00 0.00 0.00 0.00 0.00 0.00 0.00 0.00 0.00 0.00 0.00 0.00 0.00 0.00 0.00 0.00 0.00 0.00 0.00 0.00